Location: Schommer Observatory
(40.5200°N, 74.4500°W)
Time: 22:00:17
(UTC-05:00)

Hubble Space Telescope - Pass Details

Date: 19 November 2017
Orbit: 537 x 541 km, 28.5° (Epoch: 18 November)

Event Time Altitude Azimuth Distance (km) Brightness Sun altitude
Exits shadow 04:19:27 11° 163° (SSE) 1,747 3.6 -28.3°
Drops below altitude 10° 04:20:04 10° 154° (SSE) 1,778 3.7 -28.1°
Sets 04:24:11 0° 114° (ESE) 2,672 5.4 -27.4°
